| time (UTC) | temp F | wind direction | speed MPH | gust MPH | rain 1hr in | rain 24hr in | rain mn in | humidity % | barometer mb |
| 20260902031555 | 76 | 96 | 0.0 | 0.0 | 0.00 | 0.00 | 0.00 | 89 | 1017.8 |
| 20260902031055 | 76 | 96 | 0.0 | 0.0 | 0.00 | 0.00 | 0.00 | 89 | 1017.7 |
| 20260902030555 | 77 | 96 | 0.0 | 0.0 | 0.00 | 0.00 | 0.00 | 88 | 1017.7 |
| 20260902030055 | 77 | 96 | 0.0 | 0.0 | 0.00 | 0.00 | 0.00 | 88 | 1017.8 |
| 20260902025555 | 77 | 96 | 0.0 | 0.0 | 0.00 | 0.00 | 0.00 | 88 | 1017.8 |
| 20260902025055 | 77 | 96 | 0.0 | 1.0 | 0.00 | 0.00 | 0.00 | 87 | 1017.9 |
| 20260902024555 | 77 | 96 | 0.0 | 4.0 | 0.00 | 0.00 | 0.00 | 86 | 1017.8 |
| 20260902024057 | 77 | 96 | 0.0 | 4.0 | 0.00 | 0.00 | 0.00 | 87 | 1017.8 |
| 20260902023554 | 77 | 96 | 0.0 | 3.0 | 0.00 | 0.00 | 0.00 | 87 | 1017.8 |
| 20260902023054 | 77 | 96 | 0.0 | 1.0 | 0.00 | 0.00 | 0.00 | 86 | 1017.8 |
| 20260902022554 | 78 | 95 | 0.0 | 2.0 | 0.00 | 0.00 | 0.00 | 86 | 1017.7 |
| 20260902022054 | 78 | 96 | 0.0 | 2.0 | 0.00 | 0.00 | 0.00 | 85 | 1017.8 |
| 20260902021604 | 78 | 96 | 0.0 | 1.0 | 0.00 | 0.00 | 0.00 | 85 | 1017.8 |
| 20260902021054 | 78 | 96 | 0.0 | 1.0 | 0.00 | 0.00 | 0.00 | 85 | 1017.8 |
| 20260902020554 | 78 | 96 | 0.0 | 1.0 | 0.00 | 0.00 | 0.00 | 85 | 1017.7 |
| 20260902020056 | 78 | 95 | 0.0 | 1.0 | 0.00 | 0.00 | 0.00 | 86 | 1017.7 |
| 20260902015553 | 78 | 95 | 0.0 | 0.0 | 0.00 | 0.00 | 0.00 | 86 | 1017.7 |
| 20260902015057 | 79 | 96 | 0.0 | 1.0 | 0.00 | 0.00 | 0.00 | 85 | 1017.6 |
| 20260902014556 | 79 | 96 | 0.0 | 1.0 | 0.00 | 0.00 | 0.00 | 84 | 1017.5 |
| 20260902014056 | 79 | 96 | 0.0 | 1.0 | 0.00 | 0.00 | 0.00 | 83 | 1017.3 |
| 20260902013553 | 79 | 96 | 0.0 | 1.0 | 0.00 | 0.00 | 0.00 | 84 | 1017.4 |
| 20260902013053 | 79 | 96 | 0.0 | 1.0 | 0.00 | 0.00 | 0.00 | 85 | 1017.3 |
| 20260902012552 | 80 | 96 | 0.0 | 1.0 | 0.00 | 0.00 | 0.00 | 84 | 1017.3 |
| 20260902012052 | 80 | 96 | 0.0 | 1.0 | 0.00 | 0.00 | 0.00 | 85 | 1017.3 |
| 20260902011555 | 80 | 96 | 0.0 | 1.0 | 0.00 | 0.00 | 0.00 | 85 | 1017.3 |
| 20260902011055 | 80 | 96 | 0.0 | 2.0 | 0.00 | 0.00 | 0.00 | 84 | 1017.3 |
| 20260902010553 | 80 | 96 | 0.0 | 2.0 | 0.00 | 0.00 | 0.00 | 84 | 1017.4 |
| 20260902010052 | 81 | 96 | 0.0 | 1.0 | 0.00 | 0.00 | 0.00 | 84 | 1017.3 |
| 20260902005552 | 81 | 96 | 0.0 | 1.0 | 0.00 | 0.00 | 0.00 | 84 | 1017.3 |
| 20260902005052 | 82 | 96 | 0.0 | 1.0 | 0.00 | 0.00 | 0.00 | 84 | 1017.3 |
| 20260902004551 | 82 | 96 | 0.0 | 1.0 | 0.00 | 0.00 | 0.00 | 84 | 1017.3 |
| 20260902004051 | 82 | 96 | 0.0 | 1.0 | 0.00 | 0.00 | 0.00 | 83 | 1017.1 |
| 20260902003551 | 82 | 96 | 0.0 | 1.0 | 0.00 | 0.00 | 0.00 | 85 | 1017.1 |
| 20260902003051 | 82 | 96 | 0.0 | 7.0 | 0.00 | 0.00 | 0.00 | 85 | 1017.0 |
| 20260902002550 | 82 | 96 | 2.0 | 7.0 | 0.00 | 0.00 | 0.00 | 85 | 1017.0 |
| 20260902002050 | 82 | 96 | 0.0 | 2.0 | 0.00 | 0.00 | 0.00 | 84 | 1016.9 |
| 20260902001551 | 83 | 96 | 0.0 | 1.0 | 0.00 | 0.00 | 0.00 | 83 | 1017.0 |
| 20260902001050 | 83 | 96 | 0.0 | 1.0 | 0.00 | 0.00 | 0.00 | 83 | 1017.0 |
| 20260902000552 | 83 | 96 | 0.0 | 3.0 | 0.00 | 0.00 | 0.00 | 82 | 1017.0 |
| 20260902000055 | 84 | 96 | 0.0 | 3.0 | 0.00 | 0.00 | 0.00 | 80 | 1016.9 |
| 20260901235551 | 85 | 96 | 0.0 | 1.0 | 0.00 | 0.00 | 0.00 | 80 | 1017.0 |
| 20260901235050 | 85 | 96 | 0.0 | 1.0 | 0.00 | 0.00 | 0.00 | 79 | 1017.0 |
| 20260901234551 | 86 | 96 | 0.0 | 1.0 | 0.00 | 0.00 | 0.00 | 76 | 1017.0 |
| 20260901234051 | 87 | 96 | 0.0 | 1.0 | 0.00 | 0.00 | 0.00 | 74 | 1016.9 |
| 20260901233551 | 87 | 96 | 0.0 | 1.0 | 0.00 | 0.00 | 0.00 | 73 | 1017.0 |
| 20260901233100 | 88 | 96 | 0.0 | 1.0 | 0.00 | 0.00 | 0.00 | 72 | 1016.9 |
| 20260901232550 | 89 | 96 | 0.0 | 1.0 | 0.00 | 0.00 | 0.00 | 70 | 1016.9 |
| 20260901232050 | 89 | 95 | 0.0 | 0.0 | 0.00 | 0.00 | 0.00 | 69 | 1017.0 |
| 20260901231551 | 89 | 96 | 0.0 | 2.0 | 0.00 | 0.00 | 0.00 | 69 | 1017.1 |
| 20260901231049 | 90 | 96 | 0.0 | 2.0 | 0.00 | 0.00 | 0.00 | 68 | 1017.0 |
| 20260901230549 | 91 | 96 | 0.0 | 1.0 | 0.00 | 0.00 | 0.00 | 67 | 1017.1 |
| 20260901230054 | 90 | 96 | 0.0 | 3.0 | 0.00 | 0.00 | 0.00 | 66 | 1017.0 |
| 20260901225547 | 90 | 96 | 0.0 | 3.0 | 0.00 | 0.00 | 0.00 | 66 | 1017.1 |
| 20260901225048 | 90 | 96 | 1.0 | 3.0 | 0.00 | 0.00 | 0.00 | 66 | 1017.1 |
| 20260901224548 | 90 | 96 | 1.0 | 4.0 | 0.00 | 0.00 | 0.00 | 66 | 1016.9 |
| 20260901224048 | 91 | 96 | 1.0 | 4.0 | 0.00 | 0.00 | 0.00 | 63 | 1017.0 |
| 20260901223547 | 92 | 96 | 0.0 | 2.0 | 0.00 | 0.00 | 0.00 | 59 | 1017.0 |
| 20260901223104 | 92 | 96 | 0.0 | 2.0 | 0.00 | 0.00 | 0.00 | 60 | 1017.0 |
| 20260901222547 | 92 | 96 | 0.0 | 3.0 | 0.00 | 0.00 | 0.00 | 61 | 1017.0 |
| 20260901222048 | 91 | 96 | 0.0 | 3.0 | 0.00 | 0.00 | 0.00 | 62 | 1017.0 |
| 20260901221548 | 91 | 96 | 0.0 | 2.0 | 0.00 | 0.00 | 0.00 | 59 | 1017.0 |
| 20260901221045 | 92 | 96 | 0.0 | 2.0 | 0.00 | 0.00 | 0.00 | 59 | 1017.0 |
| 20260901220545 | 92 | 96 | 0.0 | 1.0 | 0.00 | 0.00 | 0.00 | 61 | 1017.1 |
| 20260901220050 | 91 | 96 | 0.0 | 1.0 | 0.00 | 0.00 | 0.00 | 60 | 1017.0 |
| 20260901215545 | 91 | 96 | 0.0 | 3.0 | 0.00 | 0.00 | 0.00 | 60 | 1017.0 |
| 20260901215045 | 92 | 96 | 0.0 | 3.0 | 0.00 | 0.00 | 0.00 | 59 | 1017.1 |
| 20260901214554 | 91 | 96 | 0.0 | 3.0 | 0.00 | 0.00 | 0.00 | 59 | 1017.1 |
| 20260901214044 | 91 | 96 | 0.0 | 4.0 | 0.00 | 0.00 | 0.00 | 60 | 1017.1 |
| 20260901213546 | 91 | 95 | 1.0 | 4.0 | 0.00 | 0.00 | 0.00 | 61 | 1017.1 |
| 20260901213044 | 90 | 96 | 0.0 | 2.0 | 0.00 | 0.00 | 0.00 | 62 | 1017.1 |
| 20260901212545 | 91 | 96 | 0.0 | 4.0 | 0.00 | 0.00 | 0.00 | 61 | 1017.2 |
| 20260901212044 | 91 | 96 | 0.0 | 4.0 | 0.00 | 0.00 | 0.00 | 60 | 1017.2 |
| 20260901211544 | 91 | 96 | 1.0 | 3.0 | 0.00 | 0.00 | 0.00 | 57 | 1017.0 |
| 20260901211046 | 92 | 96 | 0.0 | 4.0 | 0.00 | 0.00 | 0.00 | 57 | 1017.1 |
| 20260901210543 | 92 | 96 | 1.0 | 7.0 | 0.00 | 0.00 | 0.00 | 56 | 1017.2 |
| 20260901210057 | 93 | 96 | 2.0 | 8.0 | 0.00 | 0.00 | 0.00 | 56 | 1017.2 |
| 20260901205544 | 93 | 96 | 1.0 | 8.0 | 0.00 | 0.00 | 0.00 | 56 | 1017.2 |
| 20260901205045 | 92 | 96 | 2.0 | 7.0 | 0.00 | 0.00 | 0.00 | 57 | 1017.1 |
| 20260901204547 | 92 | 96 | 1.0 | 6.0 | 0.00 | 0.00 | 0.00 | 57 | 1017.2 |
| 20260901204042 | 93 | 96 | 1.0 | 7.0 | 0.00 | 0.00 | 0.00 | 56 | 1017.3 |
| 20260901203542 | 92 | 96 | 3.0 | 10.0 | 0.00 | 0.00 | 0.00 | 57 | 1017.4 |
| 20260901203103 | 92 | 96 | 6.0 | 10.0 | 0.00 | 0.00 | 0.00 | 58 | 1017.4 |
| 20260901202542 | 92 | 96 | 4.0 | 9.0 | 0.00 | 0.00 | 0.00 | 58 | 1017.4 |
| 20260901202041 | 92 | 96 | 3.0 | 7.0 | 0.00 | 0.00 | 0.00 | 58 | 1017.6 |
| 20260901201545 | 92 | 96 | 5.0 | 7.0 | 0.00 | 0.00 | 0.00 | 58 | 1017.6 |
| 20260901201041 | 92 | 96 | 3.0 | 7.0 | 0.00 | 0.00 | 0.00 | 61 | 1017.5 |
| 20260901200540 | 92 | 96 | 0.0 | 6.0 | 0.00 | 0.00 | 0.00 | 61 | 1017.5 |
| 20260901200053 | 90 | 96 | 0.0 | 6.0 | 0.00 | 0.00 | 0.00 | 62 | 1017.5 |
| 20260901195545 | 90 | 96 | 0.0 | 6.0 | 0.00 | 0.00 | 0.00 | 62 | 1017.6 |
| 20260901195045 | 90 | 96 | 1.0 | 7.0 | 0.00 | 0.00 | 0.00 | 62 | 1017.6 |
| 20260901194545 | 90 | 96 | 4.0 | 7.0 | 0.00 | 0.00 | 0.00 | 61 | 1017.6 |
| 20260901194041 | 91 | 95 | 1.0 | 7.0 | 0.00 | 0.00 | 0.00 | 58 | 1017.6 |
| 20260901193540 | 91 | 96 | 1.0 | 6.0 | 0.00 | 0.00 | 0.00 | 56 | 1017.6 |
| 20260901193043 | 92 | 96 | 0.0 | 9.0 | 0.00 | 0.00 | 0.00 | 56 | 1017.6 |
| 20260901192541 | 92 | 96 | 1.0 | 9.0 | 0.00 | 0.00 | 0.00 | 56 | 1017.8 |
| 20260901192039 | 92 | 96 | 2.0 | 7.0 | 0.00 | 0.00 | 0.00 | 56 | 1017.8 |
| 20260901191538 | 92 | 96 | 0.0 | 6.0 | 0.00 | 0.00 | 0.00 | 56 | 1017.9 |
| 20260901191041 | 92 | 96 | 2.0 | 7.0 | 0.00 | 0.00 | 0.00 | 55 | 1017.8 |
| 20260901190537 | 92 | 96 | 2.0 | 8.0 | 0.00 | 0.00 | 0.00 | 54 | 1017.9 |
| 20260901190052 | 94 | 96 | 0.0 | 3.0 | 0.00 | 0.00 | 0.00 | 53 | 1018.0 |
| 20260901185539 | 94 | 96 | 0.0 | 3.0 | 0.00 | 0.00 | 0.00 | 53 | 1018.0 |
| 20260901185038 | 94 | 96 | 1.0 | 0.0 | 0.00 | 0.00 | 0.00 | 53 | 1018.0 |
| 20260901184540 | 94 | 96 | 1.0 | 3.0 | 0.00 | 0.00 | 0.00 | 53 | 1018.1 |
| 20260901184031 | 93 | 96 | 0.0 | 6.0 | 0.00 | 0.00 | 0.00 | 53 | 1018.0 |
| 20260901183529 | 93 | 96 | 1.0 | 6.0 | 0.00 | 0.00 | 0.00 | 54 | 1018.0 |
| 20260901183033 | 92 | 96 | 1.0 | 6.0 | 0.00 | 0.00 | 0.00 | 54 | 1018.1 |
| 20260901182529 | 92 | 96 | 2.0 | 4.0 | 0.00 | 0.00 | 0.00 | 55 | 1018.2 |
| 20260901182029 | 92 | 96 | 0.0 | 8.0 | 0.00 | 0.00 | 0.00 | 55 | 1018.2 |
| 20260901181529 | 92 | 96 | 0.0 | 9.0 | 0.00 | 0.00 | 0.00 | 54 | 1018.3 |
| 20260901181029 | 93 | 96 | 3.0 | 9.0 | 0.00 | 0.00 | 0.00 | 53 | 1018.3 |
| 20260901180529 | 93 | 96 | 0.0 | 8.0 | 0.00 | 0.00 | 0.00 | 56 | 1018.2 |
| 20260901180026 | 92 | 96 | 0.0 | 7.0 | 0.00 | 0.00 | 0.00 | 56 | 1018.3 |
| 20260901175527 | 92 | 96 | 1.0 | 7.0 | 0.00 | 0.00 | 0.00 | 56 | 1018.3 |
| 20260901175024 | 91 | 96 | 2.0 | 7.0 | 0.00 | 0.00 | 0.00 | 57 | 1018.3 |
| 20260901174532 | 90 | 96 | 0.0 | 8.0 | 0.00 | 0.00 | 0.00 | 57 | 1018.3 |
| 20260901174024 | 91 | 96 | 5.0 | 8.0 | 0.00 | 0.00 | 0.00 | 56 | 1018.4 |
| 20260901173521 | 91 | 96 | 0.0 | 7.0 | 0.00 | 0.00 | 0.00 | 57 | 1018.5 |
| 20260901173021 | 90 | 96 | 0.0 | 7.0 | 0.00 | 0.00 | 0.00 | 60 | 1018.5 |
| 20260901172521 | 91 | 96 | 3.0 | 10.0 | 0.00 | 0.00 | 0.00 | 59 | 1018.5 |
| 20260901172021 | 90 | 96 | 1.0 | 10.0 | 0.00 | 0.00 | 0.00 | 60 | 1018.6 |
| 20260901171525 | 91 | 96 | 0.0 | 4.0 | 0.00 | 0.00 | 0.00 | 59 | 1018.6 |
| 20260901171019 | 90 | 96 | 0.0 | 4.0 | 0.00 | 0.00 | 0.00 | 61 | 1018.8 |
| 20260901170518 | 89 | 96 | 0.0 | 10.0 | 0.00 | 0.00 | 0.00 | 62 | 1018.8 |
| 20260901170018 | 89 | 96 | 1.0 | 8.0 | 0.00 | 0.00 | 0.00 | 62 | 1018.8 |
| 20260901165518 | 89 | 96 | 2.0 | 8.0 | 0.00 | 0.00 | 0.00 | 62 | 1018.8 |
| 20260901165021 | 88 | 96 | 2.0 | 8.0 | 0.00 | 0.00 | 0.00 | 64 | 1019.0 |
| 20260901164517 | 88 | 96 | 3.0 | 8.0 | 0.00 | 0.00 | 0.00 | 63 | 1019.0 |
| 20260901164017 | 88 | 96 | 0.0 | 6.0 | 0.00 | 0.00 | 0.00 | 64 | 1019.0 |
| 20260901163517 | 88 | 96 | 0.0 | 6.0 | 0.00 | 0.00 | 0.00 | 63 | 1019.0 |
| 20260901163023 | 88 | 96 | 4.0 | 7.0 | 0.00 | 0.00 | 0.00 | 65 | 1019.2 |
| 20260901162515 | 88 | 96 | 2.0 | 9.0 | 0.00 | 0.00 | 0.00 | 66 | 1019.2 |
| 20260901162015 | 88 | 96 | 3.0 | 9.0 | 0.00 | 0.00 | 0.00 | 65 | 1019.3 |
| 20260901161516 | 88 | 96 | 2.0 | 8.0 | 0.00 | 0.00 | 0.00 | 65 | 1019.4 |
| 20260901161014 | 87 | 96 | 0.0 | 8.0 | 0.00 | 0.00 | 0.00 | 67 | 1019.4 |
| 20260901160517 | 87 | 95 | 3.0 | 10.0 | 0.00 | 0.00 | 0.00 | 67 | 1019.6 |
| 20260901160013 | 86 | 96 | 0.0 | 4.0 | 0.00 | 0.00 | 0.00 | 68 | 1019.6 |
| 20260901155513 | 86 | 96 | 1.0 | 4.0 | 0.00 | 0.00 | 0.00 | 68 | 1019.7 |
| 20260901155013 | 86 | 96 | 0.0 | 4.0 | 0.00 | 0.00 | 0.00 | 69 | 1019.7 |
| 20260901154613 | 85 | 96 | 1.0 | 6.0 | 0.00 | 0.00 | 0.00 | 69 | 1019.6 |
| 20260901154013 | 85 | 96 | 0.0 | 6.0 | 0.00 | 0.00 | 0.00 | 69 | 1019.8 |
| 20260901153513 | 86 | 96 | 0.0 | 3.0 | 0.00 | 0.00 | 0.00 | 69 | 1019.8 |
| 20260901153010 | 86 | 96 | 0.0 | 1.0 | 0.00 | 0.00 | 0.00 | 70 | 1019.8 |
| 20260901152508 | 85 | 95 | 0.0 | 6.0 | 0.00 | 0.00 | 0.00 | 72 | 1019.8 |
| 20260901152009 | 84 | 96 | 0.0 | 6.0 | 0.00 | 0.00 | 0.00 | 73 | 1019.9 |
| 20260901151512 | 84 | 96 | 1.0 | 2.0 | 0.00 | 0.00 | 0.00 | 72 | 1020.0 |
| 20260901151008 | 84 | 96 | 0.0 | 1.0 | 0.00 | 0.00 | 0.00 | 73 | 1020.0 |
| 20260901150506 | 83 | 96 | 0.0 | 2.0 | 0.00 | 0.00 | 0.00 | 74 | 1020.0 |
| 20260901150014 | 82 | 95 | 0.0 | 2.0 | 0.00 | 0.00 | 0.00 | 76 | 1020.0 |
| 20260901145505 | 82 | 96 | 0.0 | 2.0 | 0.00 | 0.00 | 0.00 | 76 | 1020.1 |
| 20260901145003 | 81 | 96 | 0.0 | 3.0 | 0.00 | 0.00 | 0.00 | 77 | 1020.0 |
| 20260901144501 | 80 | 96 | 0.0 | 4.0 | 0.00 | 0.00 | 0.00 | 78 | 1020.0 |
| 20260901144102 | 80 | 96 | 0.0 | 4.0 | 0.00 | 0.00 | 0.00 | 79 | 1020.0 |
| 20260901143600 | 80 | 96 | 1.0 | 3.0 | 0.00 | 0.00 | 0.00 | 79 | 1020.1 |
| 20260901143129 | 79 | 96 | 0.0 | 4.0 | 0.00 | 0.00 | 0.00 | 79 | 1020.1 |
| 20260901142559 | 79 | 96 | 1.0 | 4.0 | 0.00 | 0.00 | 0.00 | 79 | 1020.0 |
| 20260901142059 | 79 | 95 | 0.0 | 3.0 | 0.00 | 0.00 | 0.00 | 80 | 1020.1 |
| 20260901141609 | 79 | 96 | 0.0 | 3.0 | 0.00 | 0.00 | 0.00 | 80 | 1020.1 |
| 20260901141057 | 79 | 96 | 0.0 | 3.0 | 0.00 | 0.00 | 0.00 | 81 | 1020.1 |
| 20260901140555 | 78 | 96 | 0.0 | 6.0 | 0.00 | 0.00 | 0.00 | 82 | 1020.2 |
| 20260901140056 | 77 | 96 | 0.0 | 4.0 | 0.00 | 0.00 | 0.00 | 82 | 1020.1 |
| 20260901135057 | 78 | 96 | 1.0 | 4.0 | 0.00 | 0.00 | 0.00 | 81 | 1020.1 |
| 20260901134556 | 78 | 96 | 0.0 | 4.0 | 0.00 | 0.00 | 0.00 | 82 | 1020.1 |
| 20260901134058 | 77 | 96 | 1.0 | 3.0 | 0.00 | 0.00 | 0.00 | 82 | 1020.1 |
| 20260901133555 | 76 | 96 | 0.0 | 6.0 | 0.00 | 0.00 | 0.00 | 83 | 1020.1 |
| 20260901133104 | 75 | 96 | 2.0 | 6.0 | 0.00 | 0.00 | 0.00 | 84 | 1020.1 |
| 20260901132552 | 75 | 96 | 1.0 | 4.0 | 0.00 | 0.00 | 0.00 | 85 | 1020.1 |
| 20260901132052 | 75 | 96 | 2.0 | 4.0 | 0.00 | 0.00 | 0.00 | 85 | 1020.1 |
| 20260901131549 | 74 | 96 | 0.0 | 1.0 | 0.00 | 0.00 | 0.00 | 86 | 1020.1 |
| 20260901131047 | 74 | 96 | 0.0 | 2.0 | 0.00 | 0.00 | 0.00 | 87 | 1020.1 |
| 20260901130546 | 73 | 96 | 0.0 | 1.0 | 0.00 | 0.00 | 0.00 | 87 | 1020.0 |
| 20260901130049 | 72 | 96 | 0.0 | 3.0 | 0.00 | 0.00 | 0.00 | 89 | 1020.1 |
| 20260901125046 | 72 | 96 | 0.0 | 3.0 | 0.00 | 0.00 | 0.00 | 89 | 1020.1 |
| 20260901124543 | 71 | 96 | 0.0 | 3.0 | 0.00 | 0.00 | 0.00 | 89 | 1020.0 |
| 20260901124043 | 71 | 96 | 0.0 | 3.0 | 0.00 | 0.00 | 0.00 | 89 | 1020.0 |
| 20260901123540 | 71 | 96 | 0.0 | 4.0 | 0.00 | 0.00 | 0.00 | 89 | 1020.2 |
| 20260901123040 | 71 | 96 | 1.0 | 4.0 | 0.00 | 0.00 | 0.00 | 90 | 1020.0 |
| 20260901122539 | 71 | 96 | 2.0 | 6.0 | 0.00 | 0.00 | 0.00 | 90 | 1020.1 |
| 20260901122039 | 71 | 96 | 1.0 | 6.0 | 0.00 | 0.00 | 0.00 | 90 | 1020.0 |
| 20260901121538 | 71 | 96 | 1.0 | 3.0 | 0.00 | 0.00 | 0.00 | 91 | 1020.0 |
| 20260901121036 | 70 | 96 | 1.0 | 3.0 | 0.00 | 0.00 | 0.00 | 92 | 1019.8 |
| 20260901120535 | 70 | 96 | 0.0 | 3.0 | 0.00 | 0.00 | 0.00 | 92 | 1019.8 |
| 20260901120041 | 69 | 96 | 0.0 | 2.0 | 0.00 | 0.00 | 0.00 | 93 | 1019.8 |
| 20260901115038 | 69 | 96 | 0.0 | 4.0 | 0.00 | 0.00 | 0.00 | 94 | 1019.8 |
| 20260901114537 | 69 | 96 | 0.0 | 4.0 | 0.00 | 0.00 | 0.00 | 94 | 1019.8 |
| 20260901114037 | 69 | 96 | 1.0 | 3.0 | 0.00 | 0.00 | 0.00 | 94 | 1019.7 |
| 20260901113537 | 69 | 96 | 0.0 | 2.0 | 0.00 | 0.00 | 0.00 | 94 | 1019.7 |
| 20260901113047 | 69 | 96 | 0.0 | 3.0 | 0.00 | 0.00 | 0.00 | 94 | 1019.6 |
| 20260901112537 | 69 | 96 | 1.0 | 3.0 | 0.00 | 0.00 | 0.00 | 94 | 1019.5 |
| 20260901112038 | 69 | 96 | 1.0 | 3.0 | 0.00 | 0.00 | 0.00 | 94 | 1019.4 |
| 20260901111537 | 69 | 96 | 0.0 | 2.0 | 0.00 | 0.00 | 0.00 | 94 | 1019.3 |
| 20260901111036 | 69 | 96 | 0.0 | 2.0 | 0.00 | 0.00 | 0.00 | 94 | 1019.2 |
| 20260901110538 | 69 | 96 | 0.0 | 1.0 | 0.00 | 0.00 | 0.00 | 94 | 1019.2 |
| 20260901110037 | 69 | 96 | 0.0 | 1.0 | 0.00 | 0.00 | 0.00 | 94 | 1019.1 |
| 20260901105036 | 68 | 96 | 0.0 | 0.0 | 0.00 | 0.00 | 0.00 | 95 | 1018.9 |
| 20260901104545 | 68 | 96 | 0.0 | 0.0 | 0.00 | 0.00 | 0.00 | 95 | 1018.9 |
| 20260901104037 | 68 | 96 | 0.0 | 0.0 | 0.00 | 0.00 | 0.00 | 95 | 1018.9 |
| 20260901103536 | 68 | 96 | 0.0 | 1.0 | 0.00 | 0.00 | 0.00 | 95 | 1018.9 |
| 20260901103036 | 68 | 96 | 0.0 | 1.0 | 0.00 | 0.00 | 0.00 | 95 | 1018.9 |
| 20260901102536 | 68 | 96 | 0.0 | 0.0 | 0.00 | 0.00 | 0.00 | 95 | 1018.9 |
| 20260901102037 | 68 | 96 | 0.0 | 0.0 | 0.00 | 0.00 | 0.00 | 95 | 1019.0 |
| 20260901101544 | 68 | 96 | 0.0 | 1.0 | 0.00 | 0.00 | 0.00 | 95 | 1018.9 |
| 20260901101035 | 68 | 96 | 0.0 | 2.0 | 0.00 | 0.00 | 0.00 | 95 | 1018.9 |
| 20260901100537 | 68 | 96 | 0.0 | 3.0 | 0.00 | 0.00 | 0.00 | 95 | 1019.0 |
| 20260901100035 | 68 | 96 | 0.0 | 2.0 | 0.00 | 0.00 | 0.00 | 95 | 1018.9 |
| 20260901095035 | 68 | 96 | 0.0 | 1.0 | 0.00 | 0.00 | 0.00 | 95 | 1018.9 |
| 20260901094538 | 68 | 96 | 0.0 | 1.0 | 0.00 | 0.00 | 0.00 | 95 | 1018.9 |
| 20260901094031 | 68 | 96 | 0.0 | 2.0 | 0.00 | 0.00 | 0.00 | 95 | 1018.7 |
| 20260901093531 | 68 | 96 | 0.0 | 2.0 | 0.00 | 0.00 | 0.00 | 95 | 1018.7 |
| 20260901093034 | 68 | 96 | 0.0 | 2.0 | 0.00 | 0.00 | 0.00 | 95 | 1018.7 |
| 20260901092531 | 68 | 96 | 0.0 | 2.0 | 0.00 | 0.00 | 0.00 | 95 | 1018.7 |
| 20260901092035 | 68 | 96 | 0.0 | 2.0 | 0.00 | 0.00 | 0.00 | 95 | 1018.7 |
| 20260901091531 | 69 | 96 | 0.0 | 2.0 | 0.00 | 0.00 | 0.00 | 94 | 1018.6 |
| 20260901091029 | 69 | 96 | 0.0 | 1.0 | 0.00 | 0.00 | 0.00 | 94 | 1018.6 |
| 20260901090530 | 69 | 96 | 0.0 | 2.0 | 0.00 | 0.00 | 0.00 | 94 | 1018.7 |
| 20260901090031 | 69 | 96 | 0.0 | 2.0 | 0.00 | 0.00 | 0.00 | 94 | 1018.7 |
| 20260901085028 | 69 | 95 | 0.0 | 3.0 | 0.00 | 0.00 | 0.00 | 94 | 1018.7 |
| 20260901084528 | 69 | 96 | 1.0 | 3.0 | 0.00 | 0.00 | 0.00 | 94 | 1018.8 |
| 20260901084028 | 70 | 96 | 0.0 | 1.0 | 0.00 | 0.00 | 0.00 | 93 | 1018.9 |
| 20260901083532 | 70 | 96 | 0.0 | 1.0 | 0.00 | 0.00 | 0.00 | 94 | 1018.9 |
| 20260901083027 | 69 | 96 | 0.0 | 1.0 | 0.00 | 0.00 | 0.00 | 95 | 1019.0 |
| 20260901082526 | 69 | 96 | 0.0 | 1.0 | 0.00 | 0.00 | 0.00 | 95 | 1019.1 |
| 20260901082027 | 69 | 96 | 0.0 | 2.0 | 0.00 | 0.00 | 0.00 | 95 | 1019.1 |
| 20260901081525 | 69 | 96 | 0.0 | 2.0 | 0.00 | 0.00 | 0.00 | 95 | 1019.0 |
| 20260901081025 | 69 | 96 | 0.0 | 0.0 | 0.00 | 0.00 | 0.00 | 95 | 1019.1 |
| 20260901080525 | 69 | 96 | 0.0 | 1.0 | 0.00 | 0.00 | 0.00 | 95 | 1019.1 |
| 20260901080031 | 69 | 96 | 0.0 | 1.0 | 0.00 | 0.00 | 0.00 | 95 | 1019.0 |
| 20260901075031 | 69 | 96 | 0.0 | 1.0 | 0.00 | 0.00 | 0.00 | 95 | 1019.1 |
| 20260901074524 | 70 | 96 | 0.0 | 1.0 | 0.00 | 0.00 | 0.00 | 94 | 1019.1 |
| 20260901074027 | 70 | 96 | 0.0 | 0.0 | 0.00 | 0.00 | 0.00 | 94 | 1019.1 |
| 20260901073529 | 70 | 96 | 0.0 | 1.0 | 0.00 | 0.00 | 0.00 | 94 | 1019.1 |
| 20260901073024 | 70 | 96 | 0.0 | 1.0 | 0.00 | 0.00 | 0.00 | 94 | 1019.2 |
| 20260901072524 | 70 | 96 | 0.0 | 0.0 | 0.00 | 0.00 | 0.00 | 94 | 1019.2 |
| 20260901072027 | 70 | 96 | 0.0 | 1.0 | 0.00 | 0.00 | 0.00 | 94 | 1019.2 |
| 20260901071524 | 70 | 96 | 0.0 | 1.0 | 0.00 | 0.00 | 0.00 | 95 | 1019.3 |
| 20260901071023 | 70 | 96 | 0.0 | 1.0 | 0.00 | 0.00 | 0.00 | 94 | 1019.4 |
| 20260901070522 | 70 | 96 | 0.0 | 2.0 | 0.00 | 0.00 | 0.00 | 94 | 1019.3 |
| 20260901070022 | 70 | 96 | 0.0 | 2.0 | 0.00 | 0.00 | 0.00 | 94 | 1019.3 |
| 20260901065022 | 70 | 96 | 2.0 | 4.0 | 0.00 | 0.00 | 0.00 | 94 | 1019.2 |
| 20260901064524 | 70 | 96 | 0.0 | 1.0 | 0.00 | 0.00 | 0.00 | 94 | 1019.2 |
| 20260901064021 | 70 | 96 | 0.0 | 1.0 | 0.00 | 0.00 | 0.00 | 94 | 1019.2 |
| 20260901063520 | 70 | 96 | 0.0 | 1.0 | 0.00 | 0.00 | 0.00 | 94 | 1019.3 |
| 20260901063020 | 70 | 96 | 0.0 | 1.0 | 0.00 | 0.00 | 0.00 | 94 | 1019.3 |
| 20260901062519 | 70 | 96 | 0.0 | 1.0 | 0.00 | 0.00 | 0.00 | 94 | 1019.2 |
| 20260901062020 | 70 | 96 | 0.0 | 1.0 | 0.00 | 0.00 | 0.00 | 94 | 1019.3 |
| 20260901061518 | 70 | 96 | 0.0 | 1.0 | 0.00 | 0.00 | 0.00 | 94 | 1019.4 |
| 20260901061018 | 70 | 96 | 0.0 | 1.0 | 0.00 | 0.00 | 0.00 | 94 | 1019.4 |
| 20260901060518 | 70 | 96 | 0.0 | 3.0 | 0.00 | 0.00 | 0.00 | 94 | 1019.5 |
| 20260901060017 | 71 | 96 | 1.0 | 4.0 | 0.00 | 0.00 | 0.00 | 94 | 1019.5 |
| 20260901055024 | 71 | 96 | 0.0 | 2.0 | 0.00 | 0.00 | 0.00 | 94 | 1019.5 |
| 20260901054520 | 71 | 96 | 0.0 | 2.0 | 0.00 | 0.00 | 0.00 | 94 | 1019.6 |
| 20260901054017 | 71 | 96 | 0.0 | 2.0 | 0.00 | 0.00 | 0.00 | 94 | 1019.6 |
| 20260901053518 | 71 | 96 | 0.0 | 3.0 | 0.00 | 0.00 | 0.00 | 94 | 1019.7 |
| 20260901053016 | 71 | 96 | 0.0 | 3.0 | 0.00 | 0.00 | 0.00 | 94 | 1019.6 |
| 20260901052515 | 71 | 96 | 0.0 | 3.0 | 0.00 | 0.00 | 0.00 | 94 | 1019.8 |
| 20260901052018 | 71 | 96 | 0.0 | 1.0 | 0.00 | 0.00 | 0.00 | 93 | 1019.7 |
| 20260901051514 | 71 | 96 | 0.0 | 2.0 | 0.00 | 0.00 | 0.00 | 93 | 1019.7 |
| 20260901051016 | 71 | 96 | 0.0 | 2.0 | 0.00 | 0.00 | 0.00 | 94 | 1019.7 |
| 20260901050514 | 71 | 96 | 0.0 | 2.0 | 0.00 | 0.00 | 0.00 | 94 | 1019.8 |
| 20260901050015 | 71 | 96 | 0.0 | 2.0 | 0.00 | 0.00 | 0.00 | 94 | 1019.8 |
| 20260901045015 | 71 | 96 | 0.0 | 3.0 | 0.00 | 0.00 | 0.00 | 93 | 1019.7 |
| 20260901044512 | 71 | 96 | 0.0 | 3.0 | 0.00 | 0.00 | 0.00 | 93 | 1019.5 |
| 20260901044012 | 71 | 96 | 0.0 | 4.0 | 0.00 | 0.00 | 0.00 | 93 | 1019.6 |
| 20260901043511 | 71 | 96 | 1.0 | 4.0 | 0.00 | 0.00 | 0.00 | 93 | 1019.6 |
| 20260901043015 | 72 | 96 | 1.0 | 4.0 | 0.00 | 0.00 | 0.00 | 93 | 1019.5 |
| 20260901042512 | 72 | 96 | 1.0 | 4.0 | 0.00 | 0.00 | 0.00 | 92 | 1019.5 |
| 20260901042010 | 72 | 96 | 1.0 | 4.0 | 0.00 | 0.00 | 0.00 | 92 | 1019.5 |
| 20260901041510 | 72 | 96 | 3.0 | 4.0 | 0.00 | 0.00 | 0.00 | 93 | 1019.6 |
| 20260901041011 | 72 | 96 | 0.0 | 3.0 | 0.00 | 0.00 | 0.00 | 93 | 1019.6 |
| 20260901040511 | 72 | 96 | 0.0 | 1.0 | 0.00 | 0.00 | 0.00 | 93 | 1019.5 |
| 20260901040010 | 72 | 96 | 0.0 | 1.0 | 0.00 | 0.00 | 0.00 | 92 | 1019.5 |
| 20260901035015 | 72 | 96 | 0.0 | 0.0 | 0.00 | 0.00 | 0.00 | 91 | 1019.4 |
| 20260901034510 | 72 | 96 | 0.0 | 1.0 | 0.00 | 0.00 | 0.00 | 92 | 1019.5 |
| 20260901034014 | 72 | 96 | 0.0 | 1.0 | 0.00 | 0.00 | 0.00 | 92 | 1019.4 |
| 20260901033510 | 72 | 96 | 0.0 | 0.0 | 0.00 | 0.00 | 0.00 | 93 | 1019.3 |
| 20260901033011 | 72 | 96 | 0.0 | 0.0 | 0.00 | 0.00 | 0.00 | 93 | 1019.3 |
| 20260901032511 | 72 | 96 | 0.0 | 0.0 | 0.00 | 0.00 | 0.00 | 94 | 1019.2 |
| 20260901032010 | 72 | 96 | 0.0 | 0.0 | 0.00 | 0.00 | 0.00 | 94 | 1019.2 |